Location: Gulgong NSW 2852, Australia
(32.2976°S, 149.5548°E)
Time: 00:36:10
(UTC+11:00)

X-37B - Pass Details

Date: 09 December 2021
Orbit: 334 x 337 km, 45.0° (Epoch: 11 January)

Event Time Altitude Azimuth Distance (km) Brightness Sun altitude
Exits shadow 05:14:02 - 319° (NW) 1,376 2.7 -7.0°
Reaches altitude 10° 05:14:16 10° 320° (NW) 1,278 2.6 -7.0°
Maximum altitude 05:17:04 52° 38° (NE) 431 0.9 -6.5°
Drops below altitude 10° 05:19:54 10° 116° (ESE) 1,293 5.1 -6.0°
Sets 05:21:58 0° 120° (ESE) 2,138 7.3 -5.6°
